Location: Kergonan
(48.2337°N, 4.5518°W)
Time: 19:01:35
(UTC+00:00)

Cosmos 1825 Rocket - Pass Details

Date: 18 January 2020
Orbit: 604 x 631 km, 82.5° (Epoch: 16 February)

Event Time Altitude Azimuth Distance (km) Brightness Sun altitude
Exits shadow 06:00:02 - 353° (N) 2,221 6.2 -19.9°
Reaches altitude 10° 06:00:40 10° 354° (N) 1,963 6.0 -19.8°
Maximum altitude 06:05:00 74° 79° (E) 635 3.7 -19.1°
Drops below altitude 10° 06:09:19 10° 165° (SSE) 1,952 6.4 -18.3°
Sets 06:11:32 0° 168° (SSE) 2,853 7.3 -18.0°
